• In Deutschland
  • Länderverzeichnis
  • Für 7 Tage
  • Wassertemperatur
  • Satellitenkarten
  • Wetterkarte
  • Widgets
  • user-avatar
    Anmelden

    Stündliche Wetter Rangpur

    Heute, 13 Dezember, Mittwoch

    Zeit Temperatur Niederschläge Wind Luftdruck Luftfeuchtigkeit
    00:00 +23°C° 0 mm 1 m/S 757 mmHg 44%
    01:00 +23°C° 0 mm 1 m/S 757 mmHg 45%
    02:00 +22°C° 0 mm 1 m/S 757 mmHg 46%
    03:00 +22°C° 0 mm 1 m/S 757 mmHg 47%
    04:00 +22°C° 0 mm 1 m/S 757 mmHg 49%
    05:00 +21°C° 0 mm 1 m/S 757 mmHg 50%
    06:00 +21°C° 0 mm 1 m/S 757 mmHg 56%
    07:00 +22°C° 0 mm 1 m/S 757 mmHg 53%
    08:00 +23°C° 0 mm 1 m/S 758 mmHg 50%
    09:00 +22°C° 0 mm 0 m/S 758 mmHg 47%
    10:00 +26°C° 0 mm 1 m/S 758 mmHg 43%
    11:00 +27°C° 0 mm 1 m/S 758 mmHg 39%
    12:00 +29°C° 0 mm 1 m/S 758 mmHg 35%
    13:00 +29°C° 0 mm 2 m/S 757 mmHg 34%
    14:00 +30°C° 0 mm 2 m/S 757 mmHg 32%
    15:00 +30°C° 0 mm 3 m/S 756 mmHg 30%
    16:00 +29°C° 0 mm 2 m/S 756 mmHg 34%
    17:00 +27°C° 0 mm 2 m/S 756 mmHg 37%
    18:00 +26°C° 0 mm 2 m/S 756 mmHg 40%
    19:00 +25°C° 0 mm 1 m/S 756 mmHg 42%
    20:00 +25°C° 0 mm 1 m/S 757 mmHg 43%
    21:00 +24°C° 0 mm 1 m/S 757 mmHg 45%
    22:00 +23°C° 0 mm 1 m/S 757 mmHg 47%
    23:00 +23°C° 0 mm 1 m/S 757 mmHg 49%

    Morgen, 14 Dezember, Donnerstag

    Zeit Temperatur Niederschläge Wind Luftdruck Luftfeuchtigkeit
    00:00 +22°C° 0 mm 1 m/S 757 mmHg 51%
    01:00 +22°C° 0 mm 1 m/S 757 mmHg 54%
    02:00 +21°C° 0 mm 1 m/S 757 mmHg 56%
    03:00 +21°C° 0 mm 1 m/S 756 mmHg 58%
    04:00 +21°C° 0 mm 1 m/S 757 mmHg 60%
    05:00 +20°C° 0 mm 1 m/S 757 mmHg 62%
    06:00 +20°C° 0 mm 1 m/S 757 mmHg 64%
    07:00 +20°C° 0 mm 2 m/S 758 mmHg 61%
    08:00 +21°C° 0 mm 2 m/S 758 mmHg 58%
    09:00 +23°C° 0 mm 2 m/S 759 mmHg 55%
    10:00 +24°C° 0 mm 2 m/S 759 mmHg 50%
    11:00 +26°C° 0 mm 2 m/S 758 mmHg 44%
    12:00 +28°C° 0 mm 2 m/S 758 mmHg 39%
    13:00 +28°C° 0 mm 2 m/S 758 mmHg 36%
    14:00 +29°C° 0 mm 2 m/S 757 mmHg 33%
    15:00 +29°C° 0 mm 2 m/S 756 mmHg 31%
    16:00 +28°C° 0 mm 2 m/S 756 mmHg 34%
    17:00 +26°C° 0 mm 2 m/S 756 mmHg 37%
    18:00 +25°C° 0 mm 1 m/S 756 mmHg 40%
    19:00 +24°C° 0 mm 1 m/S 757 mmHg 42%
    20:00 +24°C° 0 mm 1 m/S 757 mmHg 43%
    21:00 +23°C° 0 mm 1 m/S 758 mmHg 45%
    22:00 +22°C° 0 mm 1 m/S 758 mmHg 48%
    23:00 +22°C° 0 mm 1 m/S 758 mmHg 50%

    übermorgen, 15 Dezember, Freitag

    Zeit Temperatur Niederschläge Wind Luftdruck Luftfeuchtigkeit
    00:00 +21°C° 0 mm 1 m/S 758 mmHg 53%
    01:00 +21°C° 0 mm 1 m/S 757 mmHg 56%
    02:00 +20°C° 0 mm 1 m/S 757 mmHg 59%
    03:00 +20°C° 0 mm 1 m/S 757 mmHg 62%
    04:00 +19°C° 0 mm 1 m/S 757 mmHg 64%
    05:00 +19°C° 0 mm 1 m/S 757 mmHg 67%
    06:00 +19°C° 0 mm 1 m/S 757 mmHg 69%
    07:00 +19°C° 0 mm 2 m/S 758 mmHg 67%
    08:00 +20°C° 0 mm 2 m/S 758 mmHg 65%
    09:00 +21°C° 0 mm 2 m/S 759 mmHg 63%
    10:00 +24°C° 0 mm 2 m/S 759 mmHg 57%
    11:00 +25°C° 0 mm 2 m/S 758 mmHg 51%
    12:00 +27°C° 0 mm 2 m/S 758 mmHg 45%
    13:00 +27°C° 0 mm 2 m/S 757 mmHg 42%
    14:00 +28°C° 0 mm 1 m/S 756 mmHg 39%
    15:00 +28°C° 0 mm 1 m/S 756 mmHg 36%
    16:00 +27°C° 0 mm 1 m/S 756 mmHg 38%
    17:00 +26°C° 0 mm 1 m/S 756 mmHg 41%
    18:00 +25°C° 0 mm 1 m/S 757 mmHg 43%
    19:00 +24°C° 0 mm 1 m/S 757 mmHg 45%
    20:00 +23°C° 0 mm 1 m/S 758 mmHg 47%
    21:00 +23°C° 0 mm 1 m/S 759 mmHg 48%
    22:00 +22°C° 0 mm 1 m/S 759 mmHg 51%
    23:00 +22°C° 0 mm 1 m/S 759 mmHg 54%

    16 Dezember, Samstag

    Zeit Temperatur Niederschläge Wind Luftdruck Luftfeuchtigkeit
    00:00 +21°C° 0 mm 1 m/S 759 mmHg 56%
    01:00 +21°C° 0 mm 1 m/S 758 mmHg 60%
    02:00 +19°C° 0 mm 2 m/S 758 mmHg 64%
    03:00 +19°C° 0 mm 2 m/S 758 mmHg 68%
    04:00 +18°C° 0 mm 2 m/S 758 mmHg 71%
    05:00 +18°C° 0 mm 2 m/S 758 mmHg 74%
    06:00 +18°C° 0 mm 2 m/S 758 mmHg 77%
    07:00 +19°C° 0 mm 2 m/S 759 mmHg 74%
    08:00 +20°C° 0 mm 2 m/S 760 mmHg 70%
    09:00 +21°C° 0 mm 3 m/S 760 mmHg 67%
    10:00 +24°C° 0 mm 3 m/S 760 mmHg 61%
    11:00 +25°C° 0 mm 3 m/S 759 mmHg 55%
    12:00 +27°C° 0 mm 3 m/S 759 mmHg 50%
    13:00 +27°C° 0 mm 2 m/S 758 mmHg 47%
    14:00 +28°C° 0 mm 2 m/S 758 mmHg 44%
    15:00 +28°C° 0 mm 1 m/S 757 mmHg 42%
    16:00 +27°C° 0 mm 1 m/S 757 mmHg 45%
    17:00 +26°C° 0 mm 1 m/S 758 mmHg 49%
    18:00 +25°C° 0 mm 1 m/S 758 mmHg 52%
    19:00 +24°C° 0 mm 1 m/S 759 mmHg 55%
    20:00 +24°C° 0 mm 1 m/S 759 mmHg 57%
    21:00 +23°C° 0 mm 2 m/S 760 mmHg 60%
    22:00 +21°C° 0 mm 2 m/S 760 mmHg 62%
    23:00 +21°C° 0 mm 2 m/S 760 mmHg 63%

    17 Dezember, Sonntag

    Zeit Temperatur Niederschläge Wind Luftdruck Luftfeuchtigkeit
    00:00 +20°C° 0 mm 2 m/S 759 mmHg 65%
    01:00 +20°C° 0 mm 2 m/S 759 mmHg 65%
    02:00 +19°C° 0 mm 2 m/S 759 mmHg 66%
    03:00 +19°C° 0 mm 2 m/S 759 mmHg 66%
    04:00 +19°C° 0 mm 2 m/S 759 mmHg 66%
    05:00 +18°C° 0 mm 2 m/S 759 mmHg 66%
    06:00 +18°C° 0 mm 2 m/S 759 mmHg 66%
    07:00 +19°C° 0 mm 2 m/S 760 mmHg 63%
    08:00 +20°C° 0 mm 3 m/S 761 mmHg 59%
    09:00 +21°C° 0 mm 3 m/S 761 mmHg 56%
    10:00 +24°C° 0 mm 3 m/S 761 mmHg 52%
    11:00 +25°C° 0 mm 3 m/S 761 mmHg 48%
    12:00 +27°C° 0 mm 3 m/S 760 mmHg 44%
    13:00 +27°C° 0 mm 2 m/S 760 mmHg 41%
    14:00 +28°C° 0 mm 2 m/S 759 mmHg 39%
    15:00 +28°C° 0 mm 1 m/S 758 mmHg 37%
    16:00 +27°C° 0 mm 1 m/S 759 mmHg 40%
    17:00 +26°C° 0 mm 1 m/S 759 mmHg 44%
    18:00 +25°C° 0 mm 1 m/S 759 mmHg 47%
    19:00 +24°C° 0 mm 1 m/S 759 mmHg 49%
    20:00 +23°C° 0 mm 1 m/S 760 mmHg 52%
    21:00 +23°C° 0 mm 2 m/S 760 mmHg 54%
    22:00 +21°C° 0 mm 2 m/S 760 mmHg 57%
    23:00 +21°C° 0 mm 2 m/S 760 mmHg 59%

    18 Dezember, Montag

    Zeit Temperatur Niederschläge Wind Luftdruck Luftfeuchtigkeit
    00:00 +20°C° 0 mm 2 m/S 760 mmHg 61%
    01:00 +19°C° 0 mm 2 m/S 760 mmHg 62%
    02:00 +19°C° 0 mm 2 m/S 759 mmHg 63%
    03:00 +19°C° 0 mm 2 m/S 759 mmHg 64%
    04:00 +18°C° 0 mm 2 m/S 759 mmHg 65%
    05:00 +18°C° 0 mm 2 m/S 759 mmHg 65%
    06:00 +17°C° 0 mm 2 m/S 759 mmHg 65%
    07:00 +18°C° 0 mm 2 m/S 760 mmHg 61%
    08:00 +20°C° 0 mm 2 m/S 761 mmHg 57%
    09:00 +21°C° 0 mm 3 m/S 761 mmHg 53%
    10:00 +22°C° 0 mm 3 m/S 761 mmHg 50%
    11:00 +25°C° 0 mm 2 m/S 761 mmHg 46%
    12:00 +26°C° 0 mm 2 m/S 760 mmHg 42%
    13:00 +27°C° 0 mm 2 m/S 760 mmHg 40%
    14:00 +27°C° 0 mm 2 m/S 759 mmHg 39%
    15:00 +28°C° 0 mm 1 m/S 758 mmHg 37%
    16:00 +27°C° 0 mm 1 m/S 759 mmHg 40%
    17:00 +25°C° 0 mm 1 m/S 759 mmHg 43%
    18:00 +24°C° 0 mm 1 m/S 759 mmHg 47%
    19:00 +24°C° 0 mm 1 m/S 759 mmHg 49%
    20:00 +23°C° 0 mm 1 m/S 760 mmHg 52%
    21:00 +21°C° 0 mm 2 m/S 760 mmHg 54%
    22:00 +21°C° 0 mm 2 m/S 760 mmHg 56%
    23:00 +20°C° 0 mm 2 m/S 760 mmHg 58%
    Mehr zeigen